• In Slovakia
  • List of Countries
  • For 7 days
  • Water Temperature
  • Satellite Maps
  • Weather Map
  • Weather Widgets
  • user-avatar
    Login

    Hourly Weather Grzawa

    Today, 17 August, Friday

    Time Temperature Precipitation Wind Pressure Humidity
    00:00 +18°C° 0 mm 2 mps 741 mmHg 84%
    01:00 +18°C° 0 mm 2 mps 741 mmHg 86%
    02:00 +18°C° 0 mm 2 mps 741 mmHg 87%
    03:00 +17°C° 0 mm 2 mps 741 mmHg 88%
    04:00 +17°C° 0 mm 2 mps 741 mmHg 89%
    05:00 +18°C° 0 mm 2 mps 741 mmHg 84%
    06:00 +20°C° 0 mm 2 mps 741 mmHg 79%
    07:00 +21°C° 0 mm 2 mps 741 mmHg 74%
    08:00 +24°C° 0 mm 2 mps 741 mmHg 67%
    09:00 +26°C° 0 mm 2 mps 741 mmHg 59%
    10:00 +28°C° 0 mm 1 mps 741 mmHg 52%
    11:00 +28°C° 0.1 mm 1 mps 741 mmHg 50%
    12:00 +29°C° 0.1 mm 1 mps 740 mmHg 47%
    13:00 +30°C° 0.1 mm 1 mps 740 mmHg 45%
    14:00 +29°C° 0.2 mm 1 mps 740 mmHg 46%
    15:00 +29°C° 0.2 mm 1 mps 740 mmHg 47%
    16:00 +29°C° 0.2 mm 1 mps 740 mmHg 48%
    17:00 +27°C° 0.1 mm 1 mps 740 mmHg 52%
    18:00 +26°C° 0.1 mm 1 mps 740 mmHg 56%
    19:00 +25°C° 0.1 mm 1 mps 740 mmHg 61%
    20:00 +24°C° 0 mm 1 mps 740 mmHg 64%
    21:00 +23°C° 0 mm 1 mps 740 mmHg 67%
    22:00 +22°C° 0 mm 1 mps 740 mmHg 70%
    23:00 +22°C° 0 mm 1 mps 741 mmHg 72%

    Tomorrow, 18 August, Saturday

    Time Temperature Precipitation Wind Pressure Humidity
    00:00 +21°C° 0 mm 1 mps 741 mmHg 73%
    01:00 +21°C° 0 mm 1 mps 741 mmHg 75%
    02:00 +20°C° 0 mm 1 mps 741 mmHg 75%
    03:00 +20°C° 0 mm 1 mps 741 mmHg 76%
    04:00 +20°C° 0 mm 1 mps 741 mmHg 76%
    05:00 +21°C° 0 mm 1 mps 741 mmHg 73%
    06:00 +22°C° 0 mm 1 mps 741 mmHg 69%
    07:00 +24°C° 0 mm 1 mps 742 mmHg 66%
    08:00 +25°C° 0 mm 1 mps 742 mmHg 59%
    09:00 +27°C° 0 mm 1 mps 742 mmHg 53%
    10:00 +29°C° 0 mm 2 mps 742 mmHg 47%
    11:00 +29°C° 0 mm 2 mps 742 mmHg 45%
    12:00 +30°C° 0 mm 2 mps 742 mmHg 43%
    13:00 +30°C° 0 mm 2 mps 742 mmHg 41%
    14:00 +30°C° 0 mm 3 mps 742 mmHg 43%
    15:00 +30°C° 0 mm 3 mps 742 mmHg 45%
    16:00 +29°C° 0 mm 3 mps 742 mmHg 48%
    17:00 +28°C° 0.1 mm 2 mps 742 mmHg 54%
    18:00 +26°C° 0.1 mm 2 mps 742 mmHg 60%
    19:00 +24°C° 0.1 mm 2 mps 742 mmHg 67%
    20:00 +23°C° 0.1 mm 1 mps 742 mmHg 70%
    21:00 +23°C° 0.1 mm 1 mps 743 mmHg 72%
    22:00 +22°C° 0.1 mm 1 mps 743 mmHg 75%
    23:00 +21°C° 0 mm 1 mps 743 mmHg 77%

    Day after tomorrow, 19 August, Sunday

    Time Temperature Precipitation Wind Pressure Humidity
    00:00 +21°C° 0 mm 1 mps 743 mmHg 79%
    01:00 +21°C° 0 mm 1 mps 743 mmHg 80%
    02:00 +20°C° 0 mm 1 mps 743 mmHg 82%
    03:00 +20°C° 0 mm 1 mps 743 mmHg 83%
    04:00 +20°C° 0 mm 1 mps 743 mmHg 84%
    05:00 +21°C° 0 mm 1 mps 743 mmHg 81%
    06:00 +22°C° 0 mm 1 mps 743 mmHg 77%
    07:00 +23°C° 0 mm 1 mps 743 mmHg 73%
    08:00 +25°C° 0 mm 1 mps 744 mmHg 66%
    09:00 +26°C° 0 mm 2 mps 744 mmHg 60%
    10:00 +28°C° 0 mm 2 mps 744 mmHg 53%
    11:00 +29°C° 0 mm 2 mps 744 mmHg 51%
    12:00 +29°C° 0 mm 2 mps 743 mmHg 48%
    13:00 +30°C° 0 mm 2 mps 743 mmHg 46%
    14:00 +30°C° 0 mm 2 mps 743 mmHg 46%
    15:00 +29°C° 0 mm 2 mps 743 mmHg 47%
    16:00 +29°C° 0 mm 2 mps 742 mmHg 47%
    17:00 +28°C° 0 mm 2 mps 742 mmHg 53%
    18:00 +26°C° 0 mm 2 mps 742 mmHg 58%
    19:00 +24°C° 0 mm 2 mps 742 mmHg 64%
    20:00 +23°C° 0 mm 1 mps 742 mmHg 67%
    21:00 +23°C° 0 mm 1 mps 743 mmHg 70%
    22:00 +22°C° 0 mm 1 mps 743 mmHg 72%
    23:00 +21°C° 0 mm 1 mps 743 mmHg 74%

    20 August, Monday

    Time Temperature Precipitation Wind Pressure Humidity
    00:00 +21°C° 0 mm 1 mps 742 mmHg 76%
    01:00 +21°C° 0 mm 1 mps 742 mmHg 78%
    02:00 +20°C° 0 mm 1 mps 742 mmHg 79%
    03:00 +20°C° 0 mm 1 mps 742 mmHg 81%
    04:00 +20°C° 0 mm 1 mps 742 mmHg 82%
    05:00 +19°C° 0 mm 0 mps 742 mmHg 78%
    06:00 +20°C° 0 mm 0 mps 742 mmHg 73%
    07:00 +22°C° 0 mm 0 mps 742 mmHg 69%
    08:00 +25°C° 0 mm 1 mps 742 mmHg 61%
    09:00 +27°C° 0 mm 1 mps 742 mmHg 54%
    10:00 +28°C° 0 mm 1 mps 743 mmHg 47%
    11:00 +29°C° 0 mm 2 mps 742 mmHg 44%
    12:00 +30°C° 0 mm 2 mps 742 mmHg 42%
    13:00 +30°C° 0 mm 2 mps 742 mmHg 39%
    14:00 +30°C° 0 mm 2 mps 742 mmHg 39%
    15:00 +30°C° 0 mm 2 mps 742 mmHg 40%
    16:00 +30°C° 0 mm 2 mps 741 mmHg 40%
    17:00 +28°C° 0 mm 1 mps 741 mmHg 46%
    18:00 +26°C° 0 mm 1 mps 741 mmHg 52%
    19:00 +25°C° 0 mm 1 mps 741 mmHg 58%
    20:00 +24°C° 0 mm 1 mps 741 mmHg 62%
    21:00 +23°C° 0 mm 1 mps 742 mmHg 66%
    22:00 +22°C° 0 mm 1 mps 742 mmHg 70%
    23:00 +22°C° 0 mm 1 mps 742 mmHg 73%

    21 August, Tuesday

    Time Temperature Precipitation Wind Pressure Humidity
    00:00 +21°C° 0 mm 1 mps 742 mmHg 76%
    01:00 +21°C° 0 mm 1 mps 741 mmHg 78%
    02:00 +21°C° 0 mm 1 mps 741 mmHg 79%
    03:00 +20°C° 0 mm 1 mps 741 mmHg 80%
    04:00 +20°C° 0 mm 1 mps 741 mmHg 81%
    05:00 +21°C° 0 mm 1 mps 742 mmHg 77%
    06:00 +23°C° 0 mm 1 mps 742 mmHg 72%
    07:00 +24°C° 0 mm 1 mps 742 mmHg 68%
    08:00 +26°C° 0 mm 1 mps 742 mmHg 60%
    09:00 +28°C° 0 mm 1 mps 742 mmHg 52%
    10:00 +30°C° 0 mm 1 mps 742 mmHg 44%
    11:00 +31°C° 0 mm 1 mps 742 mmHg 42%
    12:00 +32°C° 0 mm 1 mps 742 mmHg 39%
    13:00 +32°C° 0 mm 1 mps 742 mmHg 37%
    14:00 +32°C° 0 mm 1 mps 741 mmHg 38%
    15:00 +32°C° 0 mm 1 mps 741 mmHg 39%
    16:00 +31°C° 0 mm 1 mps 741 mmHg 40%
    17:00 +30°C° 0 mm 1 mps 741 mmHg 45%
    18:00 +28°C° 0 mm 1 mps 741 mmHg 51%
    19:00 +26°C° 0 mm 1 mps 741 mmHg 56%
    20:00 +25°C° 0 mm 1 mps 741 mmHg 59%
    21:00 +24°C° 0 mm 1 mps 741 mmHg 62%
    22:00 +24°C° 0 mm 1 mps 742 mmHg 66%
    23:00 +23°C° 0 mm 1 mps 742 mmHg 68%

    22 August, Wednesday

    Time Temperature Precipitation Wind Pressure Humidity
    00:00 +22°C° 0 mm 1 mps 742 mmHg 70%
    01:00 +22°C° 0 mm 1 mps 742 mmHg 72%
    02:00 +22°C° 0 mm 1 mps 742 mmHg 73%
    03:00 +21°C° 0 mm 1 mps 742 mmHg 75%
    04:00 +21°C° 0 mm 1 mps 742 mmHg 76%
    05:00 +20°C° 0 mm 0 mps 742 mmHg 73%
    06:00 +21°C° 0 mm 0 mps 742 mmHg 69%
    07:00 +23°C° 0 mm 0 mps 742 mmHg 66%
    08:00 +26°C° 0 mm 1 mps 742 mmHg 60%
    09:00 +28°C° 0 mm 1 mps 742 mmHg 55%
    10:00 +30°C° 0 mm 1 mps 742 mmHg 50%
    11:00 +30°C° 0.1 mm 1 mps 742 mmHg 48%
    12:00 +31°C° 0.1 mm 1 mps 742 mmHg 47%
    13:00 +31°C° 0.1 mm 1 mps 741 mmHg 45%
    14:00 +31°C° 0.1 mm 1 mps 741 mmHg 47%
    15:00 +30°C° 0.1 mm 2 mps 741 mmHg 49%
    16:00 +30°C° 0.1 mm 2 mps 741 mmHg 50%
    17:00 +28°C° 0.4 mm 2 mps 741 mmHg 56%
    18:00 +27°C° 0.4 mm 2 mps 741 mmHg 62%
    19:00 +25°C° 0.4 mm 2 mps 741 mmHg 68%
    20:00 +24°C° 0.7 mm 1 mps 741 mmHg 72%
    21:00 +23°C° 0.7 mm 1 mps 741 mmHg 76%
    22:00 +22°C° 0.7 mm 1 mps 741 mmHg 80%
    23:00 +22°C° 0.2 mm 1 mps 741 mmHg 82%
    Show more